Time,TemperatureF,DewpointF,PressureIn,WindDirection,WindDirectionDegrees,WindSpeedMPH,WindSpeedGustMPH,Humidity,HourlyPrecipIn,Conditions,Clouds,dailyrainin,SoftwareType,DateUTC
2013-10-15 00:07:00,27.9,26.0,30.17,South,176,0.0,0.0,92,0.00,,,0.00,weatherlink.com 1.10,2013-10-15 06:07:00,
2013-10-15 00:22:00,27.9,26.0,30.17,South,176,0.0,0.0,91,0.00,,,0.00,weatherlink.com 1.10,2013-10-15 06:22:00,
2013-10-15 00:37:00,27.8,26.0,30.17,South,174,0.0,2.0,91,0.00,,,0.00,weatherlink.com 1.10,2013-10-15 06:37:00,
2013-10-15 00:52:00,27.9,25.0,30.17,South,169,0.0,2.0,90,0.00,,,0.00,weatherlink.com 1.10,2013-10-15 06:52:00,
2013-10-15 01:07:00,28.0,26.0,30.17,South,169,0.0,1.0,91,0.00,,,0.00,weatherlink.com 1.10,2013-10-15 07:07:00,
2013-10-15 01:22:00,28.0,26.0,30.17,South,169,0.0,0.0,91,0.00,,,0.00,weatherlink.com 1.10,2013-10-15 07:22:00,
2013-10-15 01:37:00,27.9,25.0,30.16,South,169,0.0,1.0,90,0.00,,,0.00,weatherlink.com 1.10,2013-10-15 07:37:00,
2013-10-15 01:52:00,27.7,26.0,30.16,South,169,0.0,0.0,91,0.00,,,0.00,weatherlink.com 1.10,2013-10-15 07:52:00,
2013-10-15 02:07:00,27.5,26.0,30.16,South,169,0.0,0.0,92,0.00,,,0.00,weatherlink.com 1.10,2013-10-15 08:07:00,
2013-10-15 02:22:00,27.5,26.0,30.16,South,169,0.0,0.0,92,0.00,,,0.00,weatherlink.com 1.10,2013-10-15 08:22:00,
2013-10-15 02:37:00,27.8,26.0,30.16,South,169,0.0,0.0,92,0.00,,,0.00,weatherlink.com 1.10,2013-10-15 08:37:00,
2013-10-15 02:52:00,27.8,26.0,30.16,South,169,0.0,0.0,92,0.00,,,0.00,weatherlink.com 1.10,2013-10-15 08:52:00,
2013-10-15 03:07:00,27.5,26.0,30.15,South,169,0.0,1.0,92,0.00,,,0.00,weatherlink.com 1.10,2013-10-15 09:07:00,
2013-10-15 03:22:00,27.0,25.0,30.16,South,169,0.0,0.0,92,0.00,,,0.00,weatherlink.com 1.10,2013-10-15 09:22:00,
2013-10-15 03:37:00,27.1,25.0,30.15,South,169,0.0,0.0,93,0.00,,,0.00,weatherlink.com 1.10,2013-10-15 09:37:00,
2013-10-15 03:52:00,26.9,25.0,30.15,South,169,0.0,0.0,93,0.00,,,0.00,weatherlink.com 1.10,2013-10-15 09:52:00,
2013-10-15 04:07:00,26.3,25.0,30.15,South,169,0.0,1.0,93,0.00,,,0.00,weatherlink.com 1.10,2013-10-15 10:07:00,
2013-10-15 04:22:00,25.9,24.0,30.15,South,169,0.0,0.0,93,0.00,,,0.00,weatherlink.com 1.10,2013-10-15 10:22:00,
2013-10-15 04:37:00,25.9,24.0,30.15,South,169,0.0,1.0,92,0.00,,,0.00,weatherlink.com 1.10,2013-10-15 10:37:00,
2013-10-15 04:52:00,25.4,23.0,30.16,South,169,0.0,0.0,92,0.00,,,0.00,weatherlink.com 1.10,2013-10-15 10:52:00,
2013-10-15 05:07:00,24.9,23.0,30.16,South,169,0.0,0.0,92,0.00,,,0.00,weatherlink.com 1.10,2013-10-15 11:07:00,
2013-10-15 05:23:00,24.5,23.0,30.16,South,169,0.0,1.0,92,0.00,,,0.00,weatherlink.com 1.10,2013-10-15 11:23:00,
2013-10-15 05:38:00,24.3,22.0,30.17,South,169,0.0,1.0,92,0.00,,,0.00,weatherlink.com 1.10,2013-10-15 11:38:00,
2013-10-15 05:53:00,24.0,22.0,30.17,South,169,0.0,0.0,92,0.00,,,0.00,weatherlink.com 1.10,2013-10-15 11:53:00,
2013-10-15 06:08:00,23.4,21.0,30.18,South,169,0.0,1.0,91,0.00,,,0.00,weatherlink.com 1.10,2013-10-15 12:08:00,
2013-10-15 06:23:00,22.7,21.0,30.18,South,179,0.0,1.0,92,0.00,,,0.00,weatherlink.com 1.10,2013-10-15 12:23:00,
2013-10-15 06:38:00,22.7,21.0,30.18,South,179,0.0,1.0,92,0.00,,,0.00,weatherlink.com 1.10,2013-10-15 12:38:00,
2013-10-15 06:53:00,23.0,21.0,30.18,South,175,0.0,0.0,91,0.00,,,0.00,weatherlink.com 1.10,2013-10-15 12:53:00,
2013-10-15 07:08:00,22.7,20.0,30.18,SSE,168,0.0,1.0,90,0.00,,,0.00,weatherlink.com 1.10,2013-10-15 13:08:00,
2013-10-15 07:23:00,22.1,20.0,30.18,SSE,168,0.0,1.0,90,0.00,,,0.00,weatherlink.com 1.10,2013-10-15 13:23:00,
2013-10-15 07:38:00,21.3,19.0,30.18,SSE,168,0.0,0.0,91,0.00,,,0.00,weatherlink.com 1.10,2013-10-15 13:38:00,
2013-10-15 07:53:00,20.9,19.0,30.19,South,171,0.0,1.0,91,0.00,,,0.00,weatherlink.com 1.10,2013-10-15 13:53:00,
2013-10-15 08:08:00,21.1,19.0,30.20,South,172,0.0,1.0,92,0.00,,,0.00,weatherlink.com 1.10,2013-10-15 14:08:00,
2013-10-15 08:23:00,22.0,20.0,30.21,South,174,0.0,0.0,91,0.00,,,0.00,weatherlink.com 1.10,2013-10-15 14:23:00,
2013-10-15 08:38:00,24.2,22.0,30.22,South,176,0.0,1.0,89,0.00,,,0.00,weatherlink.com 1.10,2013-10-15 14:38:00,
2013-10-15 08:53:00,25.6,23.0,30.22,South,173,0.0,0.0,89,0.00,,,0.00,weatherlink.com 1.10,2013-10-15 14:53:00,
2013-10-15 09:08:00,26.6,23.0,30.22,South,172,0.0,0.0,85,0.00,,,0.00,weatherlink.com 1.10,2013-10-15 15:08:00,
2013-10-15 09:23:00,27.3,23.0,30.23,South,172,0.0,1.0,84,0.00,,,0.00,weatherlink.com 1.10,2013-10-15 15:23:00,
2013-10-15 09:38:00,29.2,25.0,30.23,South,171,0.0,0.0,83,0.00,,,0.00,weatherlink.com 1.10,2013-10-15 15:38:00,
2013-10-15 09:53:00,30.5,25.0,30.22,SSE,158,0.0,1.0,81,0.00,,,0.00,weatherlink.com 1.10,2013-10-15 15:53:00,
2013-10-15 10:08:00,31.6,25.0,30.21,SSE,150,0.0,1.0,77,0.00,,,0.00,weatherlink.com 1.10,2013-10-15 16:08:00,
2013-10-15 10:23:00,32.2,25.0,30.20,SSE,150,0.0,0.0,74,0.00,,,0.00,weatherlink.com 1.10,2013-10-15 16:23:00,
2013-10-15 10:38:00,32.3,25.0,30.19,SSE,161,0.0,1.0,74,0.00,,,0.00,weatherlink.com 1.10,2013-10-15 16:38:00,
2013-10-15 10:53:00,33.7,23.0,30.19,SSE,160,0.0,1.0,64,0.00,,,0.00,weatherlink.com 1.10,2013-10-15 16:53:00,
2013-10-15 11:08:00,34.4,23.0,30.19,ESE,121,3.0,3.0,63,0.00,,,0.00,weatherlink.com 1.10,2013-10-15 17:08:00,
2013-10-15 11:23:00,33.4,20.0,30.18,SE,129,0.0,3.0,58,0.00,,,0.00,weatherlink.com 1.10,2013-10-15 17:23:00,
2013-10-15 11:38:00,34.7,22.0,30.18,SSE,153,1.0,3.0,61,0.00,,,0.00,weatherlink.com 1.10,2013-10-15 17:38:00,
2013-10-15 11:53:00,35.1,21.0,30.17,ESE,122,4.0,10.0,56,0.00,,,0.00,weatherlink.com 1.10,2013-10-15 17:53:00,
2013-10-15 12:08:00,36.0,22.0,30.17,ESE,114,4.0,10.0,57,0.00,,,0.00,weatherlink.com 1.10,2013-10-15 18:08:00,
2013-10-15 12:24:00,36.6,19.0,30.16,ESE,102,6.0,6.0,50,0.00,,,0.00,weatherlink.com 1.10,2013-10-15 18:24:00,
2013-10-15 12:39:00,35.5,20.0,30.16,ESE,123,5.0,8.0,53,0.00,,,0.00,weatherlink.com 1.10,2013-10-15 18:39:00,
2013-10-15 12:54:00,36.3,19.0,30.15,SE,129,1.0,7.0,50,0.00,,,0.00,weatherlink.com 1.10,2013-10-15 18:54:00,
2013-10-15 13:09:00,35.9,20.0,30.14,ESE,113,3.0,5.0,52,0.00,,,0.00,weatherlink.com 1.10,2013-10-15 19:09:00,
2013-10-15 13:24:00,36.3,18.0,30.13,SE,139,0.0,4.0,48,0.01,,,0.01,weatherlink.com 1.10,2013-10-15 19:24:00,
2013-10-15 13:39:00,37.0,19.0,30.12,SSE,160,0.0,2.0,49,0.02,,,0.02,weatherlink.com 1.10,2013-10-15 19:39:00,
2013-10-15 13:54:00,36.9,18.0,30.12,SE,125,1.0,4.0,46,0.03,,,0.03,weatherlink.com 1.10,2013-10-15 19:54:00,
2013-10-15 14:09:00,37.3,18.0,30.11,SSE,148,0.0,1.0,46,0.03,,,0.03,weatherlink.com 1.10,2013-10-15 20:09:00,
2013-10-15 14:24:00,37.8,18.0,30.11,SE,126,4.0,6.0,45,0.02,,,0.03,weatherlink.com 1.10,2013-10-15 20:24:00,
2013-10-15 14:39:00,37.4,17.0,30.11,SE,127,1.0,11.0,44,0.01,,,0.03,weatherlink.com 1.10,2013-10-15 20:39:00,
2013-10-15 14:54:00,37.8,19.0,30.11,SE,126,2.0,6.0,46,0.00,,,0.03,weatherlink.com 1.10,2013-10-15 20:54:00,
2013-10-15 15:09:00,38.2,18.0,30.10,SE,125,5.0,9.0,45,0.00,,,0.03,weatherlink.com 1.10,2013-10-15 21:09:00,
2013-10-15 15:24:00,38.4,19.0,30.10,ESE,117,5.0,13.0,46,0.00,,,0.03,weatherlink.com 1.10,2013-10-15 21:24:00,
2013-10-15 15:39:00,38.6,20.0,30.10,SE,128,1.0,9.0,47,0.00,,,0.03,weatherlink.com 1.10,2013-10-15 21:39:00,
2013-10-15 15:54:00,38.5,19.0,30.09,ESE,109,5.0,9.0,46,0.00,,,0.03,weatherlink.com 1.10,2013-10-15 21:54:00,
2013-10-15 16:09:00,38.4,20.0,30.08,SE,132,2.0,8.0,47,0.00,,,0.03,weatherlink.com 1.10,2013-10-15 22:09:00,
2013-10-15 16:24:00,38.4,19.0,30.08,ESE,120,2.0,7.0,45,0.00,,,0.03,weatherlink.com 1.10,2013-10-15 22:24:00,
2013-10-15 16:39:00,38.4,19.0,30.07,SE,129,1.0,9.0,45,0.00,,,0.03,weatherlink.com 1.10,2013-10-15 22:39:00,
2013-10-15 16:54:00,37.7,18.0,30.08,SE,141,1.0,4.0,45,0.00,,,0.03,weatherlink.com 1.10,2013-10-15 22:54:00,
2013-10-15 17:09:00,37.5,20.0,30.08,SE,146,0.0,1.0,49,0.00,,,0.03,weatherlink.com 1.10,2013-10-15 23:09:00,
2013-10-15 17:24:00,37.0,22.0,30.08,SE,129,0.0,5.0,56,0.00,,,0.03,weatherlink.com 1.10,2013-10-15 23:24:00,
2013-10-15 17:39:00,36.3,23.0,30.08,South,178,1.0,5.0,59,0.00,,,0.03,weatherlink.com 1.10,2013-10-15 23:39:00,
2013-10-15 17:54:00,35.1,25.0,30.09,SSE,157,0.0,1.0,66,0.00,,,0.03,weatherlink.com 1.10,2013-10-15 23:54:00,
2013-10-15 18:09:00,34.9,23.0,30.09,South,171,0.0,1.0,63,0.00,,,0.03,weatherlink.com 1.10,2013-10-16 00:09:00,
2013-10-15 18:24:00,34.4,24.0,30.09,South,171,0.0,0.0,67,0.00,,,0.03,weatherlink.com 1.10,2013-10-16 00:24:00,
2013-10-15 18:39:00,33.7,24.0,30.10,SE,137,0.0,5.0,68,0.00,,,0.03,weatherlink.com 1.10,2013-10-16 00:39:00,
2013-10-15 18:54:00,33.1,24.0,30.11,SE,135,0.0,2.0,70,0.00,,,0.03,weatherlink.com 1.10,2013-10-16 00:54:00,
2013-10-15 19:09:00,32.9,25.0,30.12,SSE,161,0.0,1.0,73,0.00,,,0.03,weatherlink.com 1.10,2013-10-16 01:09:00,
2013-10-15 19:24:00,32.0,26.0,30.12,South,177,0.0,2.0,77,0.00,,,0.03,weatherlink.com 1.10,2013-10-16 01:24:00,
2013-10-15 19:39:00,31.5,27.0,30.13,South,169,0.0,1.0,82,0.00,,,0.03,weatherlink.com 1.10,2013-10-16 01:39:00,
2013-10-15 19:54:00,30.9,27.0,30.13,South,170,0.0,1.0,86,0.00,,,0.03,weatherlink.com 1.10,2013-10-16 01:54:00,
2013-10-15 20:09:00,30.9,27.0,30.12,South,170,0.0,1.0,86,0.00,,,0.03,weatherlink.com 1.10,2013-10-16 02:09:00,
2013-10-15 20:24:00,30.7,28.0,30.12,SSE,160,0.0,2.0,88,0.00,,,0.03,weatherlink.com 1.10,2013-10-16 02:24:00,
2013-10-15 20:39:00,30.0,27.0,30.12,South,173,0.0,0.0,89,0.00,,,0.03,weatherlink.com 1.10,2013-10-16 02:39:00,
2013-10-15 20:54:00,29.3,27.0,30.12,SSE,163,0.0,1.0,90,0.00,,,0.03,weatherlink.com 1.10,2013-10-16 02:54:00,
2013-10-15 21:09:00,29.2,27.0,30.12,SE,136,0.0,4.0,91,0.00,,,0.03,weatherlink.com 1.10,2013-10-16 03:09:00,
2013-10-15 21:24:00,29.1,27.0,30.12,SE,136,0.0,1.0,91,0.00,,,0.03,weatherlink.com 1.10,2013-10-16 03:24:00,
2013-10-15 21:39:00,29.0,27.0,30.13,SE,136,0.0,0.0,92,0.00,,,0.03,weatherlink.com 1.10,2013-10-16 03:39:00,
2013-10-15 21:54:00,29.4,27.0,30.12,SE,136,0.0,1.0,91,0.00,,,0.03,weatherlink.com 1.10,2013-10-16 03:54:00,
2013-10-15 22:09:00,29.3,27.0,30.12,SE,136,0.0,1.0,91,0.00,,,0.03,weatherlink.com 1.10,2013-10-16 04:09:00,
2013-10-15 22:24:00,29.1,27.0,30.12,SE,136,0.0,1.0,92,0.00,,,0.03,weatherlink.com 1.10,2013-10-16 04:24:00,
2013-10-15 22:39:00,29.3,27.0,30.11,SE,136,0.0,1.0,92,0.00,,,0.03,weatherlink.com 1.10,2013-10-16 04:39:00,
2013-10-15 22:54:00,29.4,27.0,30.12,SE,136,0.0,0.0,91,0.00,,,0.03,weatherlink.com 1.10,2013-10-16 04:54:00,
2013-10-15 23:09:00,29.4,27.0,30.11,SE,136,0.0,1.0,90,0.00,,,0.03,weatherlink.com 1.10,2013-10-16 05:09:00,
2013-10-15 23:24:00,29.5,27.0,30.11,SE,136,0.0,0.0,91,0.00,,,0.03,weatherlink.com 1.10,2013-10-16 05:24:00,
2013-10-15 23:39:00,29.4,27.0,30.11,SE,136,0.0,0.0,91,0.00,,,0.03,weatherlink.com 1.10,2013-10-16 05:39:00,
2013-10-15 23:54:00,29.4,27.0,30.11,SE,136,0.0,0.0,91,0.00,,,0.03,weatherlink.com 1.10,2013-10-16 05:54:00,